Year,Month,Day,Hour,Minute,Value (Times are PST for temperature in C)
2017,09,02,00,00,17.70
2017,09,02,00,01,17.70
2017,09,02,00,02,17.80
2017,09,02,00,03,17.80
2017,09,02,00,04,17.80
2017,09,02,00,05,17.80
2017,09,02,00,06,17.80
2017,09,02,00,07,17.80
2017,09,02,00,08,17.70
2017,09,02,00,09,17.70
2017,09,02,00,10,17.70
2017,09,02,00,11,17.70
2017,09,02,00,12,17.70
2017,09,02,00,13,17.70
2017,09,02,00,14,17.70
2017,09,02,00,15,17.70
2017,09,02,00,16,17.70
2017,09,02,00,17,17.70
2017,09,02,00,18,17.70
2017,09,02,00,19,17.70
2017,09,02,00,20,17.70
2017,09,02,00,21,17.70
2017,09,02,00,22,17.70
2017,09,02,00,23,17.70
2017,09,02,00,24,17.60
2017,09,02,00,25,17.60
2017,09,02,00,26,17.60
2017,09,02,00,27,17.60
2017,09,02,00,28,17.60
2017,09,02,00,29,17.60
2017,09,02,00,30,17.60
2017,09,02,00,31,17.60
2017,09,02,00,32,17.60
2017,09,02,00,33,17.60
2017,09,02,00,34,17.60
2017,09,02,00,35,17.60
2017,09,02,00,36,17.50
2017,09,02,00,37,17.50
2017,09,02,00,38,17.50
2017,09,02,00,39,17.40
2017,09,02,00,40,17.40
2017,09,02,00,41,17.40
2017,09,02,00,42,17.40
2017,09,02,00,43,17.30
2017,09,02,00,44,17.30
2017,09,02,00,45,17.30
2017,09,02,00,46,17.30
2017,09,02,00,47,17.20
2017,09,02,00,48,17.20
2017,09,02,00,49,17.20
2017,09,02,00,50,17.20
2017,09,02,00,51,17.10
2017,09,02,00,52,17.10
2017,09,02,00,53,17.10
2017,09,02,00,54,17.10
2017,09,02,00,55,17.10
2017,09,02,00,56,17.00
2017,09,02,00,57,17.00
2017,09,02,00,58,17.00
2017,09,02,00,59,17.00
2017,09,02,01,00,17.00
2017,09,02,01,01,16.90
2017,09,02,01,02,16.90
2017,09,02,01,03,16.90
2017,09,02,01,04,16.90
2017,09,02,01,05,16.90
2017,09,02,01,06,16.90
2017,09,02,01,07,16.90
2017,09,02,01,08,16.90
2017,09,02,01,09,16.90
2017,09,02,01,10,16.90
2017,09,02,01,11,16.90
2017,09,02,01,12,16.90
2017,09,02,01,13,16.90
2017,09,02,01,14,16.90
2017,09,02,01,15,17.00
2017,09,02,01,16,17.00
2017,09,02,01,17,17.00
2017,09,02,01,18,17.00
2017,09,02,01,19,17.00
2017,09,02,01,20,17.00
2017,09,02,01,21,17.00
2017,09,02,01,22,17.00
2017,09,02,01,23,17.00
2017,09,02,01,24,17.00
2017,09,02,01,25,17.00
2017,09,02,01,26,16.90
2017,09,02,01,27,16.90
2017,09,02,01,28,16.90
2017,09,02,01,29,16.90
2017,09,02,01,30,16.80
2017,09,02,01,31,16.80
2017,09,02,01,32,16.80
2017,09,02,01,33,16.80
2017,09,02,01,34,16.80
2017,09,02,01,35,16.80
2017,09,02,01,36,16.80
2017,09,02,01,37,16.70
2017,09,02,01,38,16.70
2017,09,02,01,39,16.70
2017,09,02,01,40,16.70
2017,09,02,01,41,16.70
2017,09,02,01,42,16.70
2017,09,02,01,43,16.70
2017,09,02,01,44,16.70
2017,09,02,01,45,16.70
2017,09,02,01,46,16.70
2017,09,02,01,47,16.70
2017,09,02,01,48,16.70
2017,09,02,01,49,16.70
2017,09,02,01,50,16.60
2017,09,02,01,51,16.60
2017,09,02,01,52,16.60
2017,09,02,01,53,16.60
2017,09,02,01,54,16.60
2017,09,02,01,55,16.60
2017,09,02,01,56,16.60
2017,09,02,01,57,16.60
2017,09,02,01,58,16.60
2017,09,02,01,59,16.60
2017,09,02,02,00,16.60
2017,09,02,02,01,16.60
2017,09,02,02,02,16.60
2017,09,02,02,03,16.60
2017,09,02,02,04,16.60
2017,09,02,02,05,16.60
2017,09,02,02,06,16.60
2017,09,02,02,07,16.60
2017,09,02,02,08,16.60
2017,09,02,02,09,16.60
2017,09,02,02,10,16.60
2017,09,02,02,11,16.60
2017,09,02,02,12,16.60
2017,09,02,02,13,16.60
2017,09,02,02,14,16.60
2017,09,02,02,15,16.60
2017,09,02,02,16,16.50
2017,09,02,02,17,16.50
2017,09,02,02,18,16.50
2017,09,02,02,19,16.50
2017,09,02,02,20,16.50
2017,09,02,02,21,16.40
2017,09,02,02,22,16.40
2017,09,02,02,23,16.40
2017,09,02,02,24,16.40
2017,09,02,02,25,16.40
2017,09,02,02,26,16.40
2017,09,02,02,27,16.40
2017,09,02,02,28,16.40
2017,09,02,02,29,16.40
2017,09,02,02,30,16.40
2017,09,02,02,31,16.40
2017,09,02,02,32,16.40
2017,09,02,02,33,16.40
2017,09,02,02,34,16.40
2017,09,02,02,35,16.40
2017,09,02,02,36,16.40
2017,09,02,02,37,16.40
2017,09,02,02,38,16.40
2017,09,02,02,39,16.40
2017,09,02,02,40,16.30
2017,09,02,02,41,16.30
2017,09,02,02,42,16.40
2017,09,02,02,43,16.40
2017,09,02,02,44,16.30
2017,09,02,02,45,16.30
2017,09,02,02,46,16.40
2017,09,02,02,47,16.40
2017,09,02,02,48,16.30
2017,09,02,02,49,16.30
2017,09,02,02,50,16.30
2017,09,02,02,51,16.30
2017,09,02,02,52,16.30
2017,09,02,02,53,16.30
2017,09,02,02,54,16.30
2017,09,02,02,55,16.30
2017,09,02,02,56,16.30
2017,09,02,02,57,16.30
2017,09,02,02,58,16.30
2017,09,02,02,59,16.30
2017,09,02,03,00,16.30
2017,09,02,03,01,16.40
2017,09,02,03,02,16.40
2017,09,02,03,03,16.30
2017,09,02,03,04,16.30
2017,09,02,03,05,16.30
2017,09,02,03,06,16.30
2017,09,02,03,07,16.30
2017,09,02,03,08,16.30
2017,09,02,03,09,16.30
2017,09,02,03,10,16.30
2017,09,02,03,11,16.30
2017,09,02,03,12,16.20
2017,09,02,03,13,16.20
2017,09,02,03,14,16.20
2017,09,02,03,15,16.10
2017,09,02,03,16,16.10
2017,09,02,03,17,16.10
2017,09,02,03,18,16.00
2017,09,02,03,19,16.00
2017,09,02,03,20,16.00
2017,09,02,03,21,15.90
2017,09,02,03,22,15.90
2017,09,02,03,23,15.90
2017,09,02,03,24,15.80
2017,09,02,03,25,15.80
2017,09,02,03,26,15.80
2017,09,02,03,27,15.80
2017,09,02,03,28,15.70
2017,09,02,03,29,15.70
2017,09,02,03,30,15.70
2017,09,02,03,31,15.70
2017,09,02,03,32,15.70
2017,09,02,03,33,15.60
2017,09,02,03,34,15.60
2017,09,02,03,35,15.60
2017,09,02,03,36,15.60
2017,09,02,03,37,15.60
2017,09,02,03,38,15.60
2017,09,02,03,39,15.60
2017,09,02,03,40,15.60
2017,09,02,03,41,15.50
2017,09,02,03,42,15.50
2017,09,02,03,43,15.50
2017,09,02,03,44,15.50
2017,09,02,03,45,15.40
2017,09,02,03,46,15.40
2017,09,02,03,47,15.40
2017,09,02,03,48,15.40
2017,09,02,03,49,15.40
2017,09,02,03,50,15.30
2017,09,02,03,51,15.30
2017,09,02,03,52,15.30
2017,09,02,03,53,15.30
2017,09,02,03,54,15.30
2017,09,02,03,55,15.30
2017,09,02,03,56,15.20
2017,09,02,03,57,15.20
2017,09,02,03,58,15.20
2017,09,02,03,59,15.20
2017,09,02,04,00,15.20
2017,09,02,04,01,15.20
2017,09,02,04,02,15.20
2017,09,02,04,03,15.20
2017,09,02,04,04,15.20
2017,09,02,04,05,15.30
2017,09,02,04,06,15.30
2017,09,02,04,07,15.30
2017,09,02,04,08,15.30
2017,09,02,04,09,15.30
2017,09,02,04,10,15.30
2017,09,02,04,11,15.30
2017,09,02,04,12,15.30
2017,09,02,04,13,15.30
2017,09,02,04,14,15.30
2017,09,02,04,15,15.30
2017,09,02,04,16,15.40
2017,09,02,04,17,15.40
2017,09,02,04,18,15.40
2017,09,02,04,19,15.40
2017,09,02,04,20,15.40
2017,09,02,04,21,15.40
2017,09,02,04,22,15.40
2017,09,02,04,23,15.40
2017,09,02,04,24,15.40
2017,09,02,04,25,15.40
2017,09,02,04,26,15.40
2017,09,02,04,27,15.40
2017,09,02,04,28,15.40
2017,09,02,04,29,15.40
2017,09,02,04,30,15.50
2017,09,02,04,31,15.50
2017,09,02,04,32,15.50
2017,09,02,04,33,15.50
2017,09,02,04,34,15.50
2017,09,02,04,35,15.50
2017,09,02,04,36,15.60
2017,09,02,04,37,15.60
2017,09,02,04,38,15.60
2017,09,02,04,39,15.60
2017,09,02,04,40,15.60
2017,09,02,04,41,15.60
2017,09,02,04,42,15.60
2017,09,02,04,43,15.70
2017,09,02,04,44,15.70
2017,09,02,04,45,15.70
2017,09,02,04,46,15.70
2017,09,02,04,47,15.70
2017,09,02,04,48,15.70
2017,09,02,04,49,15.70
2017,09,02,04,50,15.60
2017,09,02,04,51,15.60
2017,09,02,04,52,15.60
2017,09,02,04,53,15.60
2017,09,02,04,54,15.60
2017,09,02,04,55,15.60
2017,09,02,04,56,15.60
2017,09,02,04,57,15.60
2017,09,02,04,58,15.60
2017,09,02,04,59,15.60
2017,09,02,05,00,15.60
2017,09,02,05,01,15.50
2017,09,02,05,02,15.50
2017,09,02,05,03,15.50
2017,09,02,05,04,15.50
2017,09,02,05,05,15.40
2017,09,02,05,06,15.40
2017,09,02,05,07,15.40
2017,09,02,05,08,15.40
2017,09,02,05,09,15.40
2017,09,02,05,10,15.30
2017,09,02,05,11,15.30
2017,09,02,05,12,15.30
2017,09,02,05,13,15.30
2017,09,02,05,14,15.30
2017,09,02,05,15,15.30
2017,09,02,05,16,15.20
2017,09,02,05,17,15.20
2017,09,02,05,18,15.20
2017,09,02,05,19,15.20
2017,09,02,05,20,15.20
2017,09,02,05,21,15.20
2017,09,02,05,22,15.20
2017,09,02,05,23,15.20
2017,09,02,05,24,15.10
2017,09,02,05,25,15.10
2017,09,02,05,26,15.10
2017,09,02,05,27,15.10
2017,09,02,05,28,15.10
2017,09,02,05,29,15.20
2017,09,02,05,30,15.20
2017,09,02,05,31,15.20
2017,09,02,05,32,15.20
2017,09,02,05,33,15.20
2017,09,02,05,34,15.30
2017,09,02,05,35,15.30
2017,09,02,05,36,15.30
2017,09,02,05,37,15.30
2017,09,02,05,38,15.30
2017,09,02,05,39,15.20
2017,09,02,05,40,15.20
2017,09,02,05,41,15.20
2017,09,02,05,42,15.10
2017,09,02,05,43,15.10
2017,09,02,05,44,15.00
2017,09,02,05,45,15.00
2017,09,02,05,46,15.00
2017,09,02,05,47,14.90
2017,09,02,05,48,14.90
2017,09,02,05,49,14.90
2017,09,02,05,50,14.90
2017,09,02,05,51,14.90
2017,09,02,05,52,14.90
2017,09,02,05,53,14.90
2017,09,02,05,54,14.90
2017,09,02,05,55,14.90
2017,09,02,05,56,14.90
2017,09,02,05,57,14.80
2017,09,02,05,58,14.80
2017,09,02,05,59,14.80
2017,09,02,06,00,14.80
2017,09,02,06,01,14.80
2017,09,02,06,02,14.80
2017,09,02,06,03,14.80
2017,09,02,06,04,14.80
2017,09,02,06,05,14.80
2017,09,02,06,06,14.80
2017,09,02,06,07,14.70
2017,09,02,06,08,14.70
2017,09,02,06,09,14.70
2017,09,02,06,10,14.70
2017,09,02,06,11,14.70
2017,09,02,06,12,14.70
2017,09,02,06,13,14.70
2017,09,02,06,14,14.70
2017,09,02,06,15,14.60
2017,09,02,06,16,14.60
2017,09,02,06,17,14.60
2017,09,02,06,18,14.60
2017,09,02,06,19,14.60
2017,09,02,06,20,14.60
2017,09,02,06,21,14.60
2017,09,02,06,22,14.60
2017,09,02,06,23,14.60
2017,09,02,06,24,14.60
2017,09,02,06,25,14.60
2017,09,02,06,26,14.70
2017,09,02,06,27,14.70
2017,09,02,06,28,14.70
2017,09,02,06,29,14.80
2017,09,02,06,30,14.80
2017,09,02,06,31,14.80
2017,09,02,06,32,14.80
2017,09,02,06,33,14.90
2017,09,02,06,34,14.90
2017,09,02,06,35,14.90
2017,09,02,06,36,14.90
2017,09,02,06,37,14.90
2017,09,02,06,38,14.90
2017,09,02,06,39,15.00
2017,09,02,06,40,15.00
2017,09,02,06,41,15.00
2017,09,02,06,42,15.00
2017,09,02,06,43,15.00
2017,09,02,06,44,15.00
2017,09,02,06,45,15.00
2017,09,02,06,46,15.00
2017,09,02,06,47,15.00
2017,09,02,06,48,15.00
2017,09,02,06,49,15.00
2017,09,02,06,50,15.00
2017,09,02,06,51,15.00
2017,09,02,06,52,15.00
2017,09,02,06,53,15.00
2017,09,02,06,54,15.00
2017,09,02,06,55,15.00
2017,09,02,06,56,15.00
2017,09,02,06,57,15.00
2017,09,02,06,58,15.00
2017,09,02,06,59,15.00
2017,09,02,07,00,15.00
2017,09,02,07,01,15.10
2017,09,02,07,02,15.10
2017,09,02,07,03,15.10
2017,09,02,07,04,15.10
2017,09,02,07,05,15.10
2017,09,02,07,06,15.10
2017,09,02,07,07,15.10
2017,09,02,07,08,15.10
2017,09,02,07,09,15.10
2017,09,02,07,10,15.10
2017,09,02,07,11,15.20
2017,09,02,07,12,15.20
2017,09,02,07,13,15.20
2017,09,02,07,14,15.30
2017,09,02,07,15,15.30
2017,09,02,07,16,15.30
2017,09,02,07,17,15.40
2017,09,02,07,18,15.40
2017,09,02,07,19,15.40
2017,09,02,07,20,15.40
2017,09,02,07,21,15.40
2017,09,02,07,22,15.50
2017,09,02,07,23,15.50
2017,09,02,07,24,15.50
2017,09,02,07,25,15.60
2017,09,02,07,26,15.60
2017,09,02,07,27,15.60
2017,09,02,07,28,15.60
2017,09,02,07,29,15.60
2017,09,02,07,30,15.60
2017,09,02,07,31,15.70
2017,09,02,07,32,15.70
2017,09,02,07,33,15.70
2017,09,02,07,34,15.70
2017,09,02,07,35,15.70
2017,09,02,07,36,15.80
2017,09,02,07,37,15.80
2017,09,02,07,38,15.80
2017,09,02,07,39,15.80
2017,09,02,07,40,15.80
2017,09,02,07,41,15.90
2017,09,02,07,42,15.90
2017,09,02,07,43,15.90
2017,09,02,07,44,15.90
2017,09,02,07,45,15.90
2017,09,02,07,46,15.90
2017,09,02,07,47,15.80
2017,09,02,07,48,15.80
2017,09,02,07,49,15.80
2017,09,02,07,50,15.80
2017,09,02,07,51,15.80
2017,09,02,07,52,15.80
2017,09,02,07,53,15.80
2017,09,02,07,54,15.80
2017,09,02,07,55,15.90
2017,09,02,07,56,15.90
2017,09,02,07,57,15.90
2017,09,02,07,58,15.90
2017,09,02,07,59,16.00
2017,09,02,08,00,16.00
2017,09,02,08,01,16.00
2017,09,02,08,02,16.10
2017,09,02,08,03,16.10
2017,09,02,08,04,16.20
2017,09,02,08,05,16.20
2017,09,02,08,06,16.30
2017,09,02,08,07,16.40
2017,09,02,08,08,16.40
2017,09,02,08,09,16.50
2017,09,02,08,10,16.60
2017,09,02,08,11,16.60
2017,09,02,08,12,16.70
2017,09,02,08,13,16.80
2017,09,02,08,14,16.80
2017,09,02,08,15,16.80
2017,09,02,08,16,16.90
2017,09,02,08,17,17.00
2017,09,02,08,18,17.00
2017,09,02,08,19,17.10
2017,09,02,08,20,17.10
2017,09,02,08,21,17.20
2017,09,02,08,22,17.20
2017,09,02,08,23,17.30
2017,09,02,08,24,17.30
2017,09,02,08,25,17.30
2017,09,02,08,26,17.40
2017,09,02,08,27,17.50
2017,09,02,08,28,17.60
2017,09,02,08,29,17.70
2017,09,02,08,30,17.70
2017,09,02,08,31,17.80
2017,09,02,08,32,17.90
2017,09,02,08,33,17.90
2017,09,02,08,34,18.00
2017,09,02,08,35,18.00
2017,09,02,08,36,18.10
2017,09,02,08,37,18.10
2017,09,02,08,38,18.20
2017,09,02,08,39,18.20
2017,09,02,08,40,18.30
2017,09,02,08,41,18.30
2017,09,02,08,42,18.30
2017,09,02,08,43,18.30
2017,09,02,08,44,18.30
2017,09,02,08,45,18.30
2017,09,02,08,46,18.30
2017,09,02,08,47,18.30
2017,09,02,08,48,18.30
2017,09,02,08,49,18.30
2017,09,02,08,50,18.40
2017,09,02,08,51,18.40
2017,09,02,08,52,18.40
2017,09,02,08,53,18.40
2017,09,02,08,54,18.50
2017,09,02,08,55,18.50
2017,09,02,08,56,18.50
2017,09,02,08,57,18.60
2017,09,02,08,58,18.60
2017,09,02,08,59,18.60
2017,09,02,09,00,18.60
2017,09,02,09,01,18.70
2017,09,02,09,02,18.70
2017,09,02,09,03,18.70
2017,09,02,09,04,18.70
2017,09,02,09,05,18.80
2017,09,02,09,06,18.80
2017,09,02,09,07,18.80
2017,09,02,09,08,18.80
2017,09,02,09,09,18.80
2017,09,02,09,10,18.90
2017,09,02,09,11,18.90
2017,09,02,09,12,18.90
2017,09,02,09,13,18.90
2017,09,02,09,14,19.00
2017,09,02,09,15,19.00
2017,09,02,09,16,19.10
2017,09,02,09,17,19.10
2017,09,02,09,18,19.20
2017,09,02,09,19,19.20
2017,09,02,09,20,19.30
2017,09,02,09,21,19.30
2017,09,02,09,22,19.40
2017,09,02,09,23,19.50
2017,09,02,09,24,19.60
2017,09,02,09,25,19.70
2017,09,02,09,26,19.70
2017,09,02,09,27,19.80
2017,09,02,09,28,19.80
2017,09,02,09,29,19.90
2017,09,02,09,30,19.90
2017,09,02,09,31,20.00
2017,09,02,09,32,20.00
2017,09,02,09,33,20.10
2017,09,02,09,34,20.10
2017,09,02,09,35,20.10
2017,09,02,09,36,20.20
2017,09,02,09,37,20.20
2017,09,02,09,38,20.20
2017,09,02,09,39,20.30
2017,09,02,09,40,20.30
2017,09,02,09,41,20.40
2017,09,02,09,42,20.40
2017,09,02,09,43,20.40
2017,09,02,09,44,20.50
2017,09,02,09,45,20.50
2017,09,02,09,46,20.60
2017,09,02,09,47,20.60
2017,09,02,09,48,20.70
2017,09,02,09,49,20.80
2017,09,02,09,50,20.80
2017,09,02,09,51,20.80
2017,09,02,09,52,20.90
2017,09,02,09,53,20.90
2017,09,02,09,54,21.00
2017,09,02,09,55,21.00
2017,09,02,09,56,21.00
2017,09,02,09,57,21.10
2017,09,02,09,58,21.10
2017,09,02,09,59,21.10
2017,09,02,10,00,21.20
2017,09,02,10,01,21.20
2017,09,02,10,02,21.20
2017,09,02,10,03,21.30
2017,09,02,10,04,21.30
2017,09,02,10,05,21.40
2017,09,02,10,06,21.40
2017,09,02,10,07,21.40
2017,09,02,10,08,21.40
2017,09,02,10,09,21.40
2017,09,02,10,10,21.50
2017,09,02,10,11,21.50
2017,09,02,10,12,21.60
2017,09,02,10,13,21.60
2017,09,02,10,14,21.60
2017,09,02,10,15,21.70
2017,09,02,10,16,21.70
2017,09,02,10,17,21.80
2017,09,02,10,18,21.80
2017,09,02,10,19,21.80
2017,09,02,10,20,21.90
2017,09,02,10,21,21.90
2017,09,02,10,22,21.90
2017,09,02,10,23,22.00
2017,09,02,10,24,22.00
2017,09,02,10,25,22.10
2017,09,02,10,26,22.10
2017,09,02,10,27,22.20
2017,09,02,10,28,22.20
2017,09,02,10,29,22.20
2017,09,02,10,30,22.10
2017,09,02,10,31,22.00
2017,09,02,10,32,21.90
2017,09,02,10,33,21.80
2017,09,02,10,34,21.80
2017,09,02,10,35,21.80
2017,09,02,10,36,21.80
2017,09,02,10,37,21.70
2017,09,02,10,38,21.70
2017,09,02,10,39,21.50
2017,09,02,10,40,21.40
2017,09,02,10,41,21.30
2017,09,02,10,42,21.20
2017,09,02,10,43,21.10
2017,09,02,10,44,21.00
2017,09,02,10,45,21.00
2017,09,02,10,46,21.00
2017,09,02,10,47,21.00
2017,09,02,10,48,21.00
2017,09,02,10,49,21.00
2017,09,02,10,50,21.10
2017,09,02,10,51,21.10
2017,09,02,10,52,21.10
2017,09,02,10,53,21.20
2017,09,02,10,54,21.20
2017,09,02,10,55,21.20
2017,09,02,10,56,21.30
2017,09,02,10,57,21.30
2017,09,02,10,58,21.40
2017,09,02,10,59,21.40
2017,09,02,11,00,21.50
2017,09,02,11,01,21.50
2017,09,02,11,02,21.60
2017,09,02,11,03,21.60
2017,09,02,11,04,21.60
2017,09,02,11,05,21.60
2017,09,02,11,06,21.70
2017,09,02,11,07,21.70
2017,09,02,11,08,21.80
2017,09,02,11,09,21.80
2017,09,02,11,10,21.80
2017,09,02,11,11,21.70
2017,09,02,11,12,21.70
2017,09,02,11,13,21.70
2017,09,02,11,14,21.70
2017,09,02,11,15,21.60
2017,09,02,11,16,21.60
2017,09,02,11,17,21.70
2017,09,02,11,18,21.70
2017,09,02,11,19,21.70
2017,09,02,11,20,21.70
2017,09,02,11,21,21.70
2017,09,02,11,22,21.70
2017,09,02,11,23,21.70
2017,09,02,11,24,21.60
2017,09,02,11,25,21.60
2017,09,02,11,26,21.60
2017,09,02,11,27,21.60
2017,09,02,11,28,21.60
2017,09,02,11,29,21.60
2017,09,02,11,30,21.60
2017,09,02,11,31,21.50
2017,09,02,11,32,21.50
2017,09,02,11,33,21.50
2017,09,02,11,34,21.40
2017,09,02,11,35,21.40
2017,09,02,11,36,21.40
2017,09,02,11,37,21.30
2017,09,02,11,38,21.30
2017,09,02,11,39,21.10
2017,09,02,11,40,21.00
2017,09,02,11,41,20.90
2017,09,02,11,42,20.90
2017,09,02,11,43,20.90
2017,09,02,11,44,20.90
2017,09,02,11,45,20.90
2017,09,02,11,46,21.00
2017,09,02,11,47,21.10
2017,09,02,11,48,21.20
2017,09,02,11,49,21.20
2017,09,02,11,50,21.30
2017,09,02,11,51,21.40
2017,09,02,11,52,21.50
2017,09,02,11,53,21.50
2017,09,02,11,54,21.60
2017,09,02,11,55,21.70
2017,09,02,11,56,21.80
2017,09,02,11,57,21.80
2017,09,02,11,58,21.80
2017,09,02,11,59,21.80
2017,09,02,12,00,21.80
2017,09,02,12,01,21.80
2017,09,02,12,02,21.80
2017,09,02,12,03,21.90
2017,09,02,12,04,22.00
2017,09,02,12,05,22.00
2017,09,02,12,06,22.10
2017,09,02,12,07,22.10
2017,09,02,12,08,22.20
2017,09,02,12,09,22.20
2017,09,02,12,10,22.20
2017,09,02,12,11,22.30
2017,09,02,12,12,22.30
2017,09,02,12,13,22.40
2017,09,02,12,14,22.40
2017,09,02,12,15,22.50
2017,09,02,12,16,22.50
2017,09,02,12,17,22.50
2017,09,02,12,18,22.50
2017,09,02,12,19,22.50
2017,09,02,12,20,22.50
2017,09,02,12,21,22.50
2017,09,02,12,22,22.60
2017,09,02,12,23,22.60
2017,09,02,12,24,22.60
2017,09,02,12,25,22.60
2017,09,02,12,26,22.60
2017,09,02,12,27,22.70
2017,09,02,12,28,22.80
2017,09,02,12,29,22.80
2017,09,02,12,30,22.80
2017,09,02,12,31,22.80
2017,09,02,12,32,22.80
2017,09,02,12,33,22.70
2017,09,02,12,34,22.70
2017,09,02,12,35,22.70
2017,09,02,12,36,22.60
2017,09,02,12,37,22.70
2017,09,02,12,38,22.70
2017,09,02,12,39,22.60
2017,09,02,12,40,22.60
2017,09,02,12,41,22.70
2017,09,02,12,42,22.70
2017,09,02,12,43,22.70
2017,09,02,12,44,22.70
2017,09,02,12,45,22.60
2017,09,02,12,46,22.60
2017,09,02,12,47,22.50
2017,09,02,12,48,22.50
2017,09,02,12,49,22.50
2017,09,02,12,50,22.50
2017,09,02,12,51,22.50
2017,09,02,12,52,22.50
2017,09,02,12,53,22.40
2017,09,02,12,54,22.40
2017,09,02,12,55,22.40
2017,09,02,12,56,22.50
2017,09,02,12,57,22.60
2017,09,02,12,58,22.70
2017,09,02,12,59,22.70
2017,09,02,13,00,22.70
2017,09,02,13,01,22.80
2017,09,02,13,02,22.90
2017,09,02,13,03,22.90
2017,09,02,13,04,23.00
2017,09,02,13,05,23.00
2017,09,02,13,06,23.00
2017,09,02,13,07,23.10
2017,09,02,13,08,23.10
2017,09,02,13,09,23.20
2017,09,02,13,10,23.20
2017,09,02,13,11,23.20
2017,09,02,13,12,23.20
2017,09,02,13,13,23.20
2017,09,02,13,14,23.20
2017,09,02,13,15,23.20
2017,09,02,13,16,23.20
2017,09,02,13,17,23.10
2017,09,02,13,18,23.00
2017,09,02,13,19,22.90
2017,09,02,13,20,22.80
2017,09,02,13,21,22.80
2017,09,02,13,22,22.70
2017,09,02,13,23,22.60
2017,09,02,13,24,22.50
2017,09,02,13,25,22.40
2017,09,02,13,26,22.20
2017,09,02,13,27,22.20
2017,09,02,13,28,22.10
2017,09,02,13,29,22.00
2017,09,02,13,30,22.00
2017,09,02,13,31,21.90
2017,09,02,13,32,21.90
2017,09,02,13,33,21.90
2017,09,02,13,34,21.80
2017,09,02,13,35,21.80
2017,09,02,13,36,21.70
2017,09,02,13,37,21.70
2017,09,02,13,38,21.80
2017,09,02,13,39,21.80
2017,09,02,13,40,21.80
2017,09,02,13,41,21.80
2017,09,02,13,42,21.80
2017,09,02,13,43,21.80
2017,09,02,13,44,21.80
2017,09,02,13,45,21.80
2017,09,02,13,46,21.80
2017,09,02,13,47,21.80
2017,09,02,13,48,21.80
2017,09,02,13,49,21.80
2017,09,02,13,50,21.90
2017,09,02,13,51,22.00
2017,09,02,13,52,22.10
2017,09,02,13,53,22.10
2017,09,02,13,54,22.20
2017,09,02,13,55,22.30
2017,09,02,13,56,22.30
2017,09,02,13,57,22.30
2017,09,02,13,58,22.40
2017,09,02,13,59,22.50
2017,09,02,14,00,22.60
2017,09,02,14,01,22.60
2017,09,02,14,02,22.60
2017,09,02,14,03,22.50
2017,09,02,14,04,22.50
2017,09,02,14,05,22.50
2017,09,02,14,06,22.50
2017,09,02,14,07,22.50
2017,09,02,14,08,22.40
2017,09,02,14,09,22.30
2017,09,02,14,10,22.20
2017,09,02,14,11,22.10
2017,09,02,14,12,22.00
2017,09,02,14,13,21.90
2017,09,02,14,14,21.90
2017,09,02,14,15,21.90
2017,09,02,14,16,21.80
2017,09,02,14,17,21.80
2017,09,02,14,18,21.80
2017,09,02,14,19,21.80
2017,09,02,14,20,21.80
2017,09,02,14,21,21.80
2017,09,02,14,22,21.80
2017,09,02,14,23,21.80
2017,09,02,14,24,21.70
2017,09,02,14,25,21.70
2017,09,02,14,26,21.70
2017,09,02,14,27,21.70
2017,09,02,14,28,21.60
2017,09,02,14,29,21.60
2017,09,02,14,30,21.60
2017,09,02,14,31,21.60
2017,09,02,14,32,21.60
2017,09,02,14,33,21.60
2017,09,02,14,34,21.60
2017,09,02,14,35,21.60
2017,09,02,14,36,21.50
2017,09,02,14,37,21.50
2017,09,02,14,38,21.40
2017,09,02,14,39,21.30
2017,09,02,14,40,21.30
2017,09,02,14,41,21.30
2017,09,02,14,42,21.20
2017,09,02,14,43,21.20
2017,09,02,14,44,21.10
2017,09,02,14,45,21.00
2017,09,02,14,46,21.00
2017,09,02,14,47,21.00
2017,09,02,14,48,21.00
2017,09,02,14,49,21.10
2017,09,02,14,50,21.20
2017,09,02,14,51,21.20
2017,09,02,14,52,21.30
2017,09,02,14,53,21.30
2017,09,02,14,54,21.40
2017,09,02,14,55,21.50
2017,09,02,14,56,21.60
2017,09,02,14,57,21.70
2017,09,02,14,58,21.80
2017,09,02,14,59,21.90
2017,09,02,15,00,21.90
2017,09,02,15,01,22.00
2017,09,02,15,02,22.00
2017,09,02,15,03,21.90
2017,09,02,15,04,21.90
2017,09,02,15,05,21.80
2017,09,02,15,06,21.60
2017,09,02,15,07,21.50
2017,09,02,15,08,21.40
2017,09,02,15,09,21.30
2017,09,02,15,10,21.20
2017,09,02,15,11,21.10
2017,09,02,15,12,21.10
2017,09,02,15,13,21.10
2017,09,02,15,14,21.10
2017,09,02,15,15,21.10
2017,09,02,15,16,21.00
2017,09,02,15,17,21.00
2017,09,02,15,18,21.00
2017,09,02,15,19,20.90
2017,09,02,15,20,20.90
2017,09,02,15,21,20.90
2017,09,02,15,22,21.00
2017,09,02,15,23,21.00
2017,09,02,15,24,21.10
2017,09,02,15,25,21.10
2017,09,02,15,26,21.00
2017,09,02,15,27,21.10
2017,09,02,15,28,21.10
2017,09,02,15,29,21.10
2017,09,02,15,30,21.10
2017,09,02,15,31,21.10
2017,09,02,15,32,21.10
2017,09,02,15,33,21.00
2017,09,02,15,34,20.90
2017,09,02,15,35,21.00
2017,09,02,15,36,21.00
2017,09,02,15,37,21.10
2017,09,02,15,38,21.10
2017,09,02,15,39,21.20
2017,09,02,15,40,21.20
2017,09,02,15,41,21.20
2017,09,02,15,42,21.30
2017,09,02,15,43,21.40
2017,09,02,15,44,21.40
2017,09,02,15,45,21.50
2017,09,02,15,46,21.60
2017,09,02,15,47,21.60
2017,09,02,15,48,21.70
2017,09,02,15,49,21.70
2017,09,02,15,50,21.80
2017,09,02,15,51,21.90
2017,09,02,15,52,21.90
2017,09,02,15,53,22.00
2017,09,02,15,54,22.00
2017,09,02,15,55,22.10
2017,09,02,15,56,22.10
2017,09,02,15,57,22.10
2017,09,02,15,58,22.10
2017,09,02,15,59,22.10
2017,09,02,16,00,22.10
2017,09,02,16,01,22.00
2017,09,02,16,02,22.00
2017,09,02,16,03,22.00
2017,09,02,16,04,22.00
2017,09,02,16,05,22.00
2017,09,02,16,06,21.90
2017,09,02,16,07,21.90
2017,09,02,16,08,21.90
2017,09,02,16,09,21.90
2017,09,02,16,10,21.80
2017,09,02,16,11,21.80
2017,09,02,16,12,21.70
2017,09,02,16,13,21.70
2017,09,02,16,14,21.60
2017,09,02,16,15,21.50
2017,09,02,16,16,21.50
2017,09,02,16,17,21.40
2017,09,02,16,18,21.30
2017,09,02,16,19,21.20
2017,09,02,16,20,21.20
2017,09,02,16,21,21.20
2017,09,02,16,22,21.20
2017,09,02,16,23,21.20
2017,09,02,16,24,21.20
2017,09,02,16,25,21.10
2017,09,02,16,26,21.00
2017,09,02,16,27,21.00
2017,09,02,16,28,20.90
2017,09,02,16,29,20.90
2017,09,02,16,30,20.80
2017,09,02,16,31,20.80
2017,09,02,16,32,20.70
2017,09,02,16,33,20.70
2017,09,02,16,34,20.70
2017,09,02,16,35,20.70
2017,09,02,16,36,20.60
2017,09,02,16,37,20.50
2017,09,02,16,38,20.40
2017,09,02,16,39,20.30
2017,09,02,16,40,20.10
2017,09,02,16,41,20.10
2017,09,02,16,42,20.00
2017,09,02,16,43,20.00
2017,09,02,16,44,19.90
2017,09,02,16,45,19.90
2017,09,02,16,46,19.80
2017,09,02,16,47,19.80
2017,09,02,16,48,19.80
2017,09,02,16,49,19.80
2017,09,02,16,50,19.80
2017,09,02,16,51,19.80
2017,09,02,16,52,19.80
2017,09,02,16,53,19.80
2017,09,02,16,54,19.80
2017,09,02,16,55,19.80
2017,09,02,16,56,19.80
2017,09,02,16,57,19.80
2017,09,02,16,58,19.90
2017,09,02,16,59,20.00
2017,09,02,17,00,20.00
2017,09,02,17,01,20.10
2017,09,02,17,02,20.20
2017,09,02,17,03,20.20
2017,09,02,17,04,20.20
2017,09,02,17,05,20.30
2017,09,02,17,06,20.30
2017,09,02,17,07,20.30
2017,09,02,17,08,20.30
2017,09,02,17,09,20.40
2017,09,02,17,10,20.40
2017,09,02,17,11,20.40
2017,09,02,17,12,20.40
2017,09,02,17,13,20.40
2017,09,02,17,14,20.40
2017,09,02,17,15,20.40
2017,09,02,17,16,20.40
2017,09,02,17,17,20.50
2017,09,02,17,18,20.50
2017,09,02,17,19,20.60